Location: Cold Norton
(51.6667°N, 0.6667°E)
Time: 06:14:25
(UTC+00:00)

SJ 16-02 - Pass Details

Date: 18 November 2025
Orbit: 585 x 594 km, 75.0° (Epoch: 12 December)

Event Time Altitude Azimuth Distance (km) Brightness Sun altitude
Rises 18:16:53 0° 197° (SSW) 2,825 5.0 -20.4°
Reaches altitude 10° 18:19:06 10° 195° (SSW) 1,927 4.1 -20.7°
Maximum altitude 18:23:23 76° 111° (ESE) 619 1.1 -21.4°
Enters shadow 18:24:08 59° 45° (NE) 696 1.3 -21.5°
